EA3JE

Lookups:   6037
| Bureau | Direct | LoTW | eQSL
Name:Lou
QTH:Barcelona
Country:Spain
Grid:JN11CJ
 
Web:
Email:
Hidden
Hidden
Hidden
Spain
 
  
  
ITU: 37
CQ:14
 
  
  
   
QSL via:


Source Activity Date time
DXC DX de WD8JP: 3800.0 EA3JE 2254Z 2016-02-11 22:54:00
DXC DX de KK9I: 3800.0 EA3JE vy strong 2250Z 2016-02-11 22:50:00
DXC DX de WB8CQV: 3800.0 EA3JE 2217Z 2016-02-11 22:17:00
DXC DX de F8ZPX: 3800.0 EA3JE v.wide and out of band 2216Z 2016-02-11 22:16:00
DXC DX de EA3JE: 3795.0 DS4DRE TNX 1843Z 2016-02-11 18:43:00
DXC DX de EA3JE: 3795.0 ZL4PO TNX 1839Z 2016-02-11 18:39:00
DXC DX de EA3JE: 3795.0 ZL4KK TNX 1839Z 2016-02-11 18:39:00
DXC DX de S52B: 3794.0 EA3JE cq dx lsn on WEB SDR in VK? 1810Z 2016-02-11 18:10:00
DXC DX de YC8HU/1: 3795.0 EA3JE Tnk qso 1725Z 2016-02-11 17:25:00
DXC DX de YB0AR: 3795.0 EA3JE tks lou 20db strong 1724Z 2016-02-11 17:24:00
DXC DX de W4KLG: 3800.0 EA3JE 5/9 plus 10 in Florida 2316Z 2016-02-10 23:16:00
DXC DX de IK6AWY: 3800.0 EA3JE 2310Z 2016-02-10 23:10:00
DXC DX de AA1PR: 3800.0 EA3JE 59 in vt 2301Z 2016-02-10 23:01:00
DXC DX de KC2WLR: 3800.0 EA3JE CQ DX NA 59+in NY 2244Z 2016-02-10 22:44:00
DXC DX de W2AXR: 3800.0 EA3JE my first DX contact on 80m. TNX 73 2016-02-09 22:24:00
DXC DX de W1EBM: 3799.9 EA3JE CQ DX North America 2215Z 2016-02-09 22:15:00
DXC DX de EA3JE: 3791.0 W2JVM TNX 0734Z 2016-02-09 07:34:00
DXC DX de EA3JE: 3791.0 N6MB TNX 0733Z 2016-02-09 07:33:00
DXC DX de EA3JE: 3791.0 NR6Q TNX CA. 0733Z 2016-02-09 07:33:00
DXC DX de EA3JE: 3791.0 WA1INX/7 TNX 0731Z 2016-02-09 07:31:00
DXC DX de EA3JE: 3791.0 N7ZO TNX 0730Z 2016-02-09 07:30:00
DXC DX de K2UR: 3791.0 EA3JE cq west coast usa 0558Z 2016-02-09 05:58:00
DXC DX de KC1ELD: 3800.0 EA3JE Thank you Llus for my 1st DX to EU 2016-02-08 23:19:00
DXC DX de DL4CQ: 3800.0 EA3JE ((( CQDX ))) 2231Z 2016-02-08 22:31:00
DXC DX de HB9DDS: 3800.0 EA3JE Transmitting OUT of BAND in SS 2016-02-08 22:29:00
DXC DX de YB0AR: 3798.0 EA3JE 20db 1806Z 2016-02-08 18:06:00
DXC DX de YB0AR: 3799.0 EA3JE tks lou 20db strong 1804Z 2016-02-08 18:04:00
DXC DX de UV5EOZ: 3796.0 EA3JE cq test 2229Z 2016-02-06 22:29:00
DXC DX de EA3JE: 3800.0 UT5ERP TNX 1819Z 2016-02-06 18:19:00
DXC DX de EA3JE: 3800.0 ZL4KK MEKE 1819Z 2016-02-06 18:19:00
DXC DX de EA3JE: 3800.0 EA3FP TNX 1818Z 2016-02-06 18:18:00
DXC DX de EA3FP: 3799.8 EA3JE call n.zeland & pacific 1741Z 2016-02-06 17:41:00
DXC DX de UT5ERP: 3800.0 EA3JE cq zl 1740Z 2016-02-06 17:40:00
DXC DX de W9UCW: 3794.0 EA3JE B4 SS, I mean 2259Z 2016-02-05 22:59:00
DXC DX de W9UCW: 3794.0 EA3JE Lou CQn 1 hr B4 SR here 2258Z 2016-02-05 22:58:00
DXC DX de YB0AR: 3794.0 EA3JE 5/5 cq na 2255Z 2016-02-05 22:55:00
DXC DX de F4GCD: 3795.0 EA3JE Barcelona booming! +40db 2226Z 2016-02-05 22:26:00
DXC DX de H44MS: 3795.0 EA3JE no copy here RADAR 1915Z 2016-02-05 19:15:00
DXC DX de EA3JE: 3795.0 ZL1AAO TNX 1915Z 2016-02-05 19:15:00
DXC DX de EA3JE: 3795.0 YB0AR TNX 1914Z 2016-02-05 19:14:00
DXC DX de EA3JE: 3795.0 VK6APZ TNX 1913Z 2016-02-05 19:13:00
DXC DX de EA3JE: 3795.0 H44MS TNX 1913Z 2016-02-05 19:13:00
DXC DX de H44MS: 3795.0 EA3JE DX window RADAR blocking 1825Z 2016-02-05 18:25:00
DXC DX de VK6APZ: 3795.0 EA3JE hrd 5/9+20 1823Z 2016-02-05 18:23:00
DXC DX de YB0AR: 3795.0 EA3JE Tks Lou 5/9+ 1815Z 2016-02-05 18:15:00
DXC DX de ZL1AAO: 3795.0 EA3JE Lou calling ZL 59 1807Z 2016-02-05 18:07:00
DXC DX de EA3JE: 3800.0 G6ROB TNX 2318Z 2016-02-04 23:18:00
DXC DX de G6ROB: 3800.0 EA3JE 9+40 cant heat EU 2204Z 2016-02-04 22:04:00
DXC DX de NO8D: 3800.0 EA3JE CQ DX 2202Z 2016-02-04 22:02:00
DXC DX de G6ROB: 3800.0 EA3JE WebSDR cheat 2201Z 2016-02-04 22:01:00
DXC DX de W1EBM: 3800.0 EA3JE Lou - CQ DX North America 2158Z 2016-02-04 21:58:00
DXC DX de EA3JE: 3800.0 H44MS TNX 1903Z 2016-02-03 19:03:00
DXC DX de IZ2KPE: 3800.0 EA3JE mucio eco to Italy 1808Z 2016-02-03 18:08:00
DXC DX de G6ROB: 3799.9 EA3JE Not hearing DQRM complaints 1807Z 2016-02-03 18:07:00
DXC DX de EA3JE: 3800.0 W1EBM TNX 2315Z 2016-02-02 23:15:00
DXC DX de EA3JE: 3800.0 ZL2VVA TNX 2314Z 2016-02-02 23:14:00
DXC DX de W1EBM: 3800.0 EA3JE Lou CQ DX No. Am. 2239Z 2016-02-02 22:39:00
DXC DX de LY7M: 3800.0 EA3JE mudaka 2234Z 2016-02-02 22:34:00
DXC DX de LY7M: 3800.0 EA3JE cq NA no RX 2234Z 2016-02-02 22:34:00
DXC DX de LY7M: 3800.0 EA3JE no rx 2233Z 2016-02-02 22:33:00
DXC DX de HL2WA: 3800.0 EA3JE CQ NA 2230Z 2016-02-02 22:30:00
DXC DX de LY7M: 3800.0 EA3JE big signal 2227Z 2016-02-02 22:27:00
DXC DX de LY7M: 3800.0 EA3JE cyrcus 2224Z 2016-02-02 22:24:00
DXC DX de ON4GI: 3796.0 EA3JE Bigg POWER 10kw 2357Z 2016-02-01 23:57:00
DXC DX de KD4Z: 3792.0 EA3JE thx for 80m Lou. 73 2344Z 2016-02-01 23:44:00
DXC DX de HL2WA: 3791.0 EA3JE LOU, CQ NA 2217Z 2016-02-01 22:17:00
DXC DX de SV1EML: 3799.9 EA3JE CQ ZL 1633Z 2016-02-01 16:33:00
DXC DX de PY4XZ: 3798.0 EA3JE CQ DX NA s5/7... SWL 0041Z 2016-01-31 00:41:00
DXC DX de N1ZLE: 3798.0 EA3JE 0014Z 2016-01-31 00:14:00
DXC DX de WA3JPY: 3798.0 EA3JE GREAT ROBOT STATION! 2359Z 2016-01-30 23:59:00
DXC DX de VK2HSV: 7163.0 EA3JE Calling CQ 5:90+20 Sydney 2018Z 2016-01-30 20:18:00
DXC DX de A75GA: 7163.0 EA3JE Calling CQ VK 2016Z 2016-01-30 20:16:00
DXC DX de FG5GP: 7163.0 EA3JE 59 lou 2001Z 2016-01-30 20:01:00
DXC DX de VK2HSV: 7163.0 EA3JE 5:90+20 Into Sydney 2000Z 2016-01-30 20:00:00
DXC DX de 4Z5UY: 7166.0 EA3JE CQ Japan 1813Z 2016-01-30 18:13:00
DXC DX de 2M0YIO: 14207.0 EA3JE cqdx ve7 w6 w7 ve6 1708Z 2016-01-30 17:08:00
DXC DX de VK3FN: 14260.0 EA3JE 1554Z 2016-01-30 15:54:00
DXC DX de N2CMH: 14206.7 EA3JE 1128Z 2016-01-30 11:28:00
DXC DX de ZL1PDT: 3796.0 EA3JE Hi Lou thx 5/9 NZ 1746Z 2016-01-29 17:46:00
DXC DX de MK3FEH: 3796.0 EA3JE CALLING DX 1724Z 2016-01-29 17:24:00
DXC DX de YB0AR: 3796.0 EA3JE 5/9+ Lou. Tks for Qso 1723Z 2016-01-29 17:23:00
DXC DX de WB8RFB: 3791.0 EA3JE 59 into IL. 2301Z 2016-01-21 23:01:00
DXC DX de WS9V: 3791.0 EA3JE cq dx 2237Z 2016-01-21 22:37:00
DXC DX de RK3RT: 3791.0 EA3JE CQ JA Asia 1913Z 2016-01-21 19:13:00
DXC DX de YB0AR: 3797.0 EA3JE tks Lou for 5/9+ 1706Z 2016-01-21 17:06:00
DXC DX de M0ODV: 3800.0 EA3JE op Lou CQ DX NA loud de SWL 2334Z 2016-01-19 23:34:00
DXC DX de M0ODV: 3800.0 EA3JE Lou working DX loud 2331Z 2016-01-19 23:31:00
DXC DX de IK6AWY: 3800.0 EA3JE 2302Z 2016-01-19 23:02:00
DXC DX de VA2BOY: 3800.0 EA3JE 2233Z 2016-01-19 22:33:00
DXC DX de VA2BOY: 3800.0 EA3JE QSO with VE2BWW 2229Z 2016-01-19 22:29:00
DXC DX de S52B: 3800.0 EA3JE corr freq stil qrming 1811Z 2016-01-19 18:11:00
DXC DX de S52B: 3799.0 EA3JE lsn web sdr qrming on 3798.0 1810 2016-01-19 18:10:00
DXC DX de DO5SSB: 3796.0 EA3JE websdr? 2318Z 2016-01-18 23:18:00
DXC DX de N7DC/4: 3795.7 EA3JE 59 into Va. 2317Z 2016-01-18 23:17:00
DXC DX de FK6YOU: 3796.0 EA3JE Clown Barsilona Power Idiot th 2016-01-18 22:56:00
DXC DX de EA3JE: 3791.0 ZL1BAK TNX Gram 2039Z 2016-01-18 20:39:00
DXC DX de EA3JE: 3791.0 ZL1HCR TNX Roger 2038Z 2016-01-18 20:38:00
DXC DX de EA3JE: 3791.0 ZL3ADT TNX Rss 2037Z 2016-01-18 20:37:00
DXC DX de UR0GK: 3798.0 EA3JE 1943Z 2016-01-18 19:43:00
DXC DX de UR0GK: 3791.0 EA3JE 1925Z 2016-01-18 19:25:00
DXC DX de DL1BWU: 3795.0 EA3JE 1852Z 2016-01-18 18:52:00
DXC DX de IK1JUO: 3798.0 EA3JE please use skype.not 80 m 1817Z 2016-01-18 18:17:00
DXC DX de IK1JUO: 3798.0 EA3JE ridicolous remote rx qso 1813Z 2016-01-18 18:13:00
DXC DX de 2M0EVS: 3798.0 EA3JE cq zl 1805Z 2016-01-18 18:05:00
DXC DX de SV1EIA: 3798.0 EA3JE EA3JE 1803Z 2016-01-18 18:03:00
DXC DX de EA3JE: 3791.0 HL2VA TNX 2208Z 2016-01-17 22:08:00
DXC DX de EA3JE: 3791.0 XU7TZG TNX 2208Z 2016-01-17 22:08:00
DXC DX de EA3JE: 3791.0 YB0AR 15DS. 2206Z 2016-01-17 22:06:00
DXC DX de W1EBM: 3791.0 EA3JE Lou 59+20 . . . Tnx QSO 2143Z 2016-01-17 21:43:00
DXC DX de SP2XF: 3791.0 EA3JE loud SDR turns on VOX 2142Z 2016-01-17 21:42:00
DXC DX de EA2AZ: 3791.0 EA3JE CQ CQ USA 2131Z 2016-01-17 21:31:00
DXC DX de EA5010U: 3791.0 EA3JE (SWL) CQ CQ DX 2125Z 2016-01-17 21:25:00
DXC DX de EA5010URE: 3791.0 EA3JE (SWL) CQ CQ DX 2125Z 2016-01-17 21:25:00
DXC DX de IK2SYI: 3791.0 EA3JE only sdr 5/9 n/a 2122Z 2016-01-17 21:22:00
DXC DX de EA2AZ: 3791.0 EA3JE genuino, el mejor 2119Z 2016-01-17 21:19:00
DXC DX de HL2WA: 3791.0 EA3JE CQ 2118Z 2016-01-17 21:18:00
DXC DX de YB0AR: 3789.0 EA3JE strong 20db 2038Z 2016-01-17 20:38:00
DXC DX de UR0QK: 3789.0 EA3JE tnx QSO 73! 2032Z 2016-01-17 20:32:00
DXC DX de RD4HZ: 3789.0 EA3JE 5/9+10db 73! 2005Z 2016-01-17 20:05:00
DXC DX de OS8D: 3789.0 EA3JE 1929Z 2016-01-17 19:29:00
DXC DX de WX3B: 3791.0 EA3JE Louder than the USA guys LSB 0011Z 2016-01-17 00:11:00
DXC DX de YT5BOS: 3791.0 EA3JE 0002Z 2016-01-17 00:02:00
DXC DX de KE4FW: 3791.0 EA3JE 0002Z 2016-01-17 00:02:00
DXC DX de AI2Q: 3791.0 EA3JE Lou, booming across 2338Z 2016-01-16 23:38:00
DXC DX de G8ZPX: 3791.0 EA3JE Web SDR cheat 2321Z 2016-01-16 23:21:00
DXC DX de DO5SSB: 3790.0 EA3JE 2256Z 2016-01-16 22:56:00
DXC DX de XU7TZG: 7132.0 EA3JE CQ JAPAN 2048Z 2016-01-16 20:48:00
DXC DX de IV3OKO: 7132.0 EA3JE 2025Z 2016-01-16 20:25:00
DXC DX de HL2VA: 7132.0 EA3JE FB QSO TNX 2022Z 2016-01-16 20:22:00
DXC DX de 9G5GH: 7132.0 EA3JE cq Japan 1925Z 2016-01-16 19:25:00
DXC DX de SQ9CNN: 7133.0 EA3JE cq ja/dx 1920Z 2016-01-16 19:20:00
DXC DX de ZL1PDT: 7133.0 EA3JE 5/9 in new zealand 1911Z 2016-01-16 19:11:00
DXC DX de WB2CM: 7196.0 EA3JE 5/9 in Virginia., station looking for West Coast 2016-01-16 01:48:00
DXC DX de WB2CM: 7196.0 EA3JE 0146Z 2016-01-16 01:46:00
DXC DX de FM1AG: 7197.0 EA3JE 59++ in Martinique 0047Z 2016-01-16 00:47:00
DXC DX de WK3T: 7133.0 EA3JE CQ JA 2031Z 2016-01-15 20:31:00
DXC DX de JA4CYZ: 7133.0 EA3JE CQ DXing Dr Lou Tnx 2020Z 2016-01-15 20:20:00
DXC DX de HL2KXT: 7133.0 EA3JE cq dx... 1953Z 2016-01-15 19:53:00
DXC DX de K8MWO: 7182.0 EA3JE Worked as portable; booming 2327Z 2016-01-14 23:27:00
DXC DX de K3EEI: 7189.0 EA3JE 2259Z 2016-01-14 22:59:00
DXC DX de KC0BRA: 7189.0 EA3JE 2252Z 2016-01-14 22:52:00
DXC DX de JA4CYZ: 7132.0 EA3JE Dr Lou GE Tnx CQ DXing 1942Z 2016-01-14 19:42:00
DXC DX de JA6XMM: 7132.0 EA3JE cq ja now 1913Z 2016-01-14 19:13:00
DXC DX de JA4CYZ: 7132.0 EA3JE DR Lou Tnx QSO vy 1st qso2016 2016-01-13 20:07:00
DXC DX de M0ODV: 7158.0 EA3JE Nihon sagashi CQ Japan 1922Z 2016-01-13 19:22:00
DXC DX de VK2HJ: 7158.0 EA3JE CQ JAPAN 1854Z 2016-01-13 18:54:00
DXC DX de IK8UDH: 7158.0 EA3JE cq cq dx jap 1850Z 2016-01-13 18:50:00
DXC DX de EA3JE: 7197.5 W6AT LARRY 0141Z 2016-01-13 01:41:00
DXC DX de EA3JE: 7197.5 YB0JS TNX SUR 0140Z 2016-01-13 01:40:00
DXC DX de EA3JE: 7197.5 K6DN TNX 0139Z 2016-01-13 01:39:00
DXC DX de EA3JE: 7197.5 KD6BIS TNX CA 0138Z 2016-01-13 01:38:00
DXC DX de EA3JE: 7197.5 W7WQ TNX WASS 0137Z 2016-01-13 01:37:00
DXC DX de EA3JE: 7197.5 N7LLZ TNX WASS 0136Z 2016-01-13 01:36:00
DXC DX de EA3JE: 7197.5 KD7KDC TNX WASS 0135Z 2016-01-13 01:35:00
DXC DX de EA3JE: 7197.5 KJ6RMM TNX 0134Z 2016-01-13 01:34:00
DXC DX de EA3JE: 7197.5 KE6UCN TNX 0134Z 2016-01-13 01:34:00
DXC DX de EA3JE: 7197.5 N6NUZ TNX 0133Z 2016-01-13 01:33:00
DXC DX de EA3JE: 7197.5 KA7VE TNX 0132Z 2016-01-13 01:32:00
DXC DX de KG5HVO: 7197.0 EA3JE 0103Z 2016-01-13 01:03:00
DXC DX de TF3DT: 7197.5 EA3JE CQ for Westcost W7 and W6 +20 in Reykjavik 2016-01-13 00:41:00
DXC DX de AE4TQ: 7197.6 EA3JE LSB 2312Z 2016-01-12 23:12:00
DXC DX de 5B4ALS: 7197.3 EA3JE dx north america 2232Z 2016-01-12 22:32:00
DXC DX de KF5UQJ: 7198.0 EA3JE CALLING FOR W6 AND W7 WEST COAST 2016-01-12 01:07:00
DXC DX de KK4FTC: 7198.0 EA3JE 0021Z 2016-01-12 00:21:00
DXC DX de KK4FTC: 14250.0 EA3JE 0010Z 2016-01-12 00:10:00
DXC DX de 9A8DX: 7199.0 EA3JE 1900Z 2016-01-11 19:00:00
DXC DX de EA3JE: 3793.0 W3ENM TNX 0003Z 2016-01-11 00:03:00
DXC DX de W3ENM: 3793.0 EA3JE 2313Z 2016-01-10 23:13:00
DXC DX de WE8DX: 3796.0 EA3JE 2235Z 2016-01-10 22:35:00
DXC DX de G8ZPX: 3796.0 EA3JE we can hear webSDR cheating 2233Z 2016-01-10 22:33:00
DXC DX de EB5AB: 3796.0 EA3JE CQ CQ CQ N.A 2232Z 2016-01-10 22:32:00
DXC DX de G8ZPX: 3796.0 EA3JE 25KW spanish joke! 2232Z 2016-01-10 22:32:00
DXC DX de JA5AQC: 3799.0 EA3JE CQ DX NOW BIG SIGNAL 2224Z 2016-01-10 22:24:00
DXC DX de EA3JE: 3799.0 JA5AQC TNX 2053Z 2016-01-09 20:53:00
DXC DX de EA3JE: 3799.0 SP9KUP TNX 2052Z 2016-01-09 20:52:00
DXC DX de SP9KUP: 3799.0 EA3JE cq 5/9 +40 swl 1916Z 2016-01-09 19:16:00
DXC DX de K4NV: 3796.5 EA3JE 2330Z 2016-01-08 23:30:00
DXC DX de ER1SS: 3796.6 EA3JE 2200KM 45DBW 25-40KW 2250Z 2016-01-08 22:50:00
DXC DX de G8ZPX: 3796.6 EA3JE rebroadcasting WebSDR 2242Z 2016-01-08 22:42:00
DXC DX de ER1SS: 3796.6 EA3JE 3 el yagi F/B 59+50 HI HI 2238Z 2016-01-08 22:38:00
DXC DX de ER1SS: 3796.6 EA3JE 87-104DBM 7mV-15mV kn46jx 2232Z 2016-01-08 22:32:00
DXC DX de ER1SS: 3796.6 EA3JE 30DBW-1KW 40DBW-10KW 50DBW-100 2 2016-01-08 22:29:00
DXC DX de G8ZPX: 3796.6 EA3JE 25KW and deaf! 2227Z 2016-01-08 22:27:00
DXC DX de ER1SS: 3796.6 EA3JE 59+50 RADIO BARSILONA 2226Z 2016-01-08 22:26:00
DXC DX de ER1SS: 3796.6 EA3JE 47-50dbW 87DBM 16mv 25kw 2225Z 2016-01-08 22:25:00
DXC DX de EA3JE: 3796.5 G8ZPX TNX 1245Z 2016-01-08 12:45:00
DXC DX de G8ZPX: 3796.5 EA3JE the king of Web SDR 2218Z 2016-01-07 22:18:00
DXC DX de EA3JE: 3797.5 ZL3LF TNX 2012Z 2016-01-07 20:12:00
DXC DX de DL3WB: 3796.0 EA3JE TNX 4 QSO a.MCh.a.a.H.N.Y 2016 1 2016-01-07 19:38:00
DXC DX de RD4HZ: 3796.0 EA3JE 5/9+15db 73&HNY!!! 1924Z 2016-01-07 19:24:00
DXC DX de OM3CAQ: 3796.0 EA3JE op: Lou 59+15 dB/20 dB 1920Z 2016-01-07 19:20:00
DXC DX de ZL3LF: 3795.9 EA3JE TNX QSO.. CQ ZL 1828Z 2016-01-07 18:28:00
DXC DX de EA3JE: 3797.5 WV6N TNX 2357Z 2016-01-06 23:57:00
DXC DX de WV6N: 3797.5 EA3JE 59+20dB 2347Z 2016-01-06 23:47:00
DXC DX de DL6SRD: 3778.0 EA3JE cq vy gud sigs 1933Z 2016-01-06 19:33:00
DXC DX de ON8DN: 3778.0 EA3JE 1903Z 2016-01-06 19:03:00
DXC DX de EA3HDZ: 3778.0 EA3JE MISTER LOU DXing 1855Z 2016-01-06 18:55:00
DXC DX de W3FOX: 3792.0 EA3JE 2239Z 2016-01-05 22:39:00
DXC DX de EA3JE: 3797.0 VA3TIC TNX 2340Z 2016-01-04 23:40:00
DXC DX de K2UR: 3797.0 EA3JE correct call 2319Z 2016-01-04 23:19:00